Time,TemperatureF,DewpointF,PressureIn,WindDirection,WindDirectionDegrees,WindSpeedMPH,WindSpeedGustMPH,Humidity,HourlyPrecipIn,Conditions,Clouds,dailyrainin,SoftwareType,DateUTC
2013-08-09 00:00:00,54.9,39.0,30.12,SE,125,0.0,0.0,55,0.00,,,0.00,meteohub,2013-08-09 07:00:00,
2013-08-09 00:05:00,54.9,39.0,30.12,SE,138,0.0,0.0,55,0.00,,,0.00,meteohub,2013-08-09 07:05:00,
2013-08-09 00:10:00,54.7,39.4,30.12,SE,139,0.0,0.0,56,0.00,,,0.00,meteohub,2013-08-09 07:10:00,
2013-08-09 00:15:00,54.7,39.4,30.13,SE,133,0.0,1.0,56,0.00,,,0.00,meteohub,2013-08-09 07:15:00,
2013-08-09 00:20:00,54.3,39.4,30.13,SE,127,0.0,1.0,57,0.00,,,0.00,meteohub,2013-08-09 07:20:00,
2013-08-09 00:25:00,54.1,39.2,30.12,SSE,163,0.0,1.0,57,0.00,,,0.00,meteohub,2013-08-09 07:25:00,
2013-08-09 00:30:00,54.0,39.0,30.12,ESE,106,0.0,1.0,57,0.00,,,0.00,meteohub,2013-08-09 07:30:00,
2013-08-09 00:35:00,53.8,39.4,30.12,ESE,109,0.0,1.0,58,0.00,,,0.00,meteohub,2013-08-09 07:35:00,
2013-08-09 00:40:00,53.6,39.2,30.12,South,171,0.0,1.0,58,0.00,,,0.00,meteohub,2013-08-09 07:40:00,
2013-08-09 00:45:00,53.2,39.2,30.12,SSE,167,0.0,1.0,59,0.00,,,0.00,meteohub,2013-08-09 07:45:00,
2013-08-09 00:50:00,53.2,38.8,30.12,SSE,167,0.0,0.0,58,0.00,,,0.00,meteohub,2013-08-09 07:50:00,
2013-08-09 00:56:00,53.1,39.2,30.12,SSW,205,0.0,1.0,59,0.00,,,0.00,meteohub,2013-08-09 07:56:00,
2013-08-09 01:01:00,52.9,39.0,30.12,SE,139,0.0,1.0,59,0.00,,,0.00,meteohub,2013-08-09 08:01:00,
2013-08-09 01:06:00,52.9,39.4,30.12,SSW,205,0.0,1.0,60,0.00,,,0.00,meteohub,2013-08-09 08:06:00,
2013-08-09 01:11:00,52.5,39.0,30.12,SSE,148,1.0,1.0,60,0.00,,,0.00,meteohub,2013-08-09 08:11:00,
2013-08-09 01:16:00,52.2,39.2,30.12,SSE,148,1.0,1.0,61,0.00,,,0.00,meteohub,2013-08-09 08:16:00,
2013-08-09 01:21:00,52.0,39.0,30.12,SSE,153,1.0,1.0,61,0.00,,,0.00,meteohub,2013-08-09 08:21:00,
2013-08-09 01:26:00,51.8,39.2,30.11,SSE,153,0.0,2.0,62,0.00,,,0.00,meteohub,2013-08-09 08:26:00,
2013-08-09 01:31:00,51.6,39.0,30.11,SSE,160,0.0,2.0,62,0.00,,,0.00,meteohub,2013-08-09 08:31:00,
2013-08-09 01:36:00,51.4,39.2,30.12,SSE,153,0.0,2.0,63,0.00,,,0.00,meteohub,2013-08-09 08:36:00,
2013-08-09 01:41:00,51.3,38.7,30.11,SE,142,0.0,1.0,62,0.00,,,0.00,meteohub,2013-08-09 08:41:00,
2013-08-09 01:46:00,51.1,38.8,30.11,South,173,0.0,1.0,63,0.00,,,0.00,meteohub,2013-08-09 08:46:00,
2013-08-09 01:51:00,50.9,38.8,30.11,SSE,165,0.0,1.0,63,0.00,,,0.00,meteohub,2013-08-09 08:51:00,
2013-08-09 01:56:00,50.7,38.7,30.11,SSW,196,0.0,2.0,63,0.00,,,0.00,meteohub,2013-08-09 08:56:00,
2013-08-09 02:01:00,50.5,38.5,30.11,SSE,161,0.0,2.0,63,0.00,,,0.00,meteohub,2013-08-09 09:01:00,
2013-08-09 02:06:00,50.4,38.3,30.11,SSE,158,0.0,2.0,63,0.00,,,0.00,meteohub,2013-08-09 09:06:00,
2013-08-09 02:11:00,50.2,38.1,30.11,SSE,159,0.0,0.0,63,0.00,,,0.00,meteohub,2013-08-09 09:11:00,
2013-08-09 02:16:00,50.0,38.3,30.11,SSE,157,0.0,0.0,64,0.00,,,0.00,meteohub,2013-08-09 09:16:00,
2013-08-09 02:21:00,49.8,38.1,30.11,South,169,0.0,0.0,64,0.00,,,0.00,meteohub,2013-08-09 09:21:00,
2013-08-09 02:26:00,49.8,38.1,30.11,SSE,161,0.0,2.0,64,0.00,,,0.00,meteohub,2013-08-09 09:26:00,
2013-08-09 02:31:00,49.6,38.3,30.11,SE,144,0.0,2.0,65,0.00,,,0.00,meteohub,2013-08-09 09:31:00,
2013-08-09 02:36:00,49.6,38.3,30.11,SE,144,0.0,1.0,65,0.00,,,0.00,meteohub,2013-08-09 09:36:00,
2013-08-09 02:41:00,49.5,38.1,30.11,SE,145,0.0,1.0,65,0.00,,,0.00,meteohub,2013-08-09 09:41:00,
2013-08-09 02:46:00,49.5,38.1,30.11,SE,137,0.0,1.0,65,0.00,,,0.00,meteohub,2013-08-09 09:46:00,
2013-08-09 02:51:00,49.5,38.1,30.10,SE,137,0.0,1.0,65,0.00,,,0.00,meteohub,2013-08-09 09:51:00,
2013-08-09 02:56:00,49.6,38.3,30.10,SE,137,0.0,1.0,65,0.00,,,0.00,meteohub,2013-08-09 09:56:00,
2013-08-09 03:01:00,49.6,38.3,30.10,SE,137,0.0,1.0,65,0.00,,,0.00,meteohub,2013-08-09 10:01:00,
2013-08-09 03:06:00,49.6,38.3,30.10,SSE,160,0.0,1.0,65,0.00,,,0.00,meteohub,2013-08-09 10:06:00,
2013-08-09 03:11:00,49.6,38.3,30.10,SSE,168,0.0,1.0,65,0.00,,,0.00,meteohub,2013-08-09 10:11:00,
2013-08-09 03:16:00,49.5,38.1,30.10,South,169,0.0,1.0,65,0.00,,,0.00,meteohub,2013-08-09 10:16:00,
2013-08-09 03:21:00,49.5,38.1,30.10,SE,146,0.0,0.0,65,0.00,,,0.00,meteohub,2013-08-09 10:21:00,
2013-08-09 03:26:00,49.5,38.7,30.10,SSW,200,0.0,1.0,66,0.00,,,0.00,meteohub,2013-08-09 10:26:00,
2013-08-09 03:31:00,49.3,38.5,30.09,SSW,193,0.0,1.0,66,0.00,,,0.00,meteohub,2013-08-09 10:31:00,
2013-08-09 03:37:00,49.3,38.5,30.09,South,184,0.0,1.0,66,0.00,,,0.00,meteohub,2013-08-09 10:37:00,
2013-08-09 03:42:00,49.3,38.5,30.09,South,183,0.0,0.0,66,0.00,,,0.00,meteohub,2013-08-09 10:42:00,
2013-08-09 03:47:00,49.3,38.5,30.09,South,172,0.0,0.0,66,0.00,,,0.00,meteohub,2013-08-09 10:47:00,
2013-08-09 03:52:00,49.3,38.5,30.09,SSE,150,0.0,0.0,66,0.00,,,0.00,meteohub,2013-08-09 10:52:00,
2013-08-09 03:57:00,49.1,38.3,30.09,SSE,150,0.0,0.0,66,0.00,,,0.00,meteohub,2013-08-09 10:57:00,
2013-08-09 04:02:00,48.9,38.1,30.09,SE,140,0.0,0.0,66,0.00,,,0.00,meteohub,2013-08-09 11:02:00,
2013-08-09 04:07:00,48.7,37.9,30.08,SE,140,0.0,1.0,66,0.00,,,0.00,meteohub,2013-08-09 11:07:00,
2013-08-09 04:12:00,48.7,37.9,30.09,SE,140,0.0,1.0,66,0.00,,,0.00,meteohub,2013-08-09 11:12:00,
2013-08-09 04:17:00,48.6,37.8,30.08,SE,141,0.0,1.0,66,0.00,,,0.00,meteohub,2013-08-09 11:17:00,
2013-08-09 04:22:00,48.6,37.8,30.08,SSE,157,0.0,1.0,66,0.00,,,0.00,meteohub,2013-08-09 11:22:00,
2013-08-09 04:27:00,48.4,37.6,30.08,SSE,161,0.0,1.0,66,0.00,,,0.00,meteohub,2013-08-09 11:27:00,
2013-08-09 04:32:00,48.4,37.6,30.08,SE,137,1.0,1.0,66,0.00,,,0.00,meteohub,2013-08-09 11:32:00,
2013-08-09 04:37:00,48.4,37.6,30.08,SSE,148,0.0,1.0,66,0.00,,,0.00,meteohub,2013-08-09 11:37:00,
2013-08-09 04:42:00,48.4,37.9,30.08,SE,146,0.0,1.0,67,0.00,,,0.00,meteohub,2013-08-09 11:42:00,
2013-08-09 04:47:00,48.4,37.9,30.09,SSE,163,0.0,1.0,67,0.00,,,0.00,meteohub,2013-08-09 11:47:00,
2013-08-09 04:52:00,48.4,37.9,30.09,SSE,159,0.0,1.0,67,0.00,,,0.00,meteohub,2013-08-09 11:52:00,
2013-08-09 04:57:00,48.6,38.1,30.08,SSE,160,0.0,1.0,67,0.00,,,0.00,meteohub,2013-08-09 11:57:00,
2013-08-09 05:02:00,48.7,38.3,30.08,SSE,155,0.0,1.0,67,0.00,,,0.00,meteohub,2013-08-09 12:02:00,
2013-08-09 05:07:00,48.9,38.1,30.09,SSE,157,0.0,1.0,66,0.00,,,0.00,meteohub,2013-08-09 12:07:00,
2013-08-09 05:12:00,49.1,38.3,30.08,SSE,150,0.0,1.0,66,0.00,,,0.00,meteohub,2013-08-09 12:12:00,
2013-08-09 05:17:00,49.3,37.9,30.09,SSE,150,0.0,0.0,65,0.00,,,0.00,meteohub,2013-08-09 12:17:00,
2013-08-09 05:22:00,49.5,38.1,30.08,SE,146,0.0,1.0,65,0.00,,,0.00,meteohub,2013-08-09 12:22:00,
2013-08-09 05:27:00,49.6,38.3,30.08,SSE,168,0.0,1.0,65,0.00,,,0.00,meteohub,2013-08-09 12:27:00,
2013-08-09 05:32:00,49.6,38.3,30.08,SSE,159,0.0,1.0,65,0.00,,,0.00,meteohub,2013-08-09 12:32:00,
2013-08-09 05:37:00,49.6,37.9,30.09,SE,146,0.0,1.0,64,0.00,,,0.00,meteohub,2013-08-09 12:37:00,
2013-08-09 05:42:00,49.5,38.1,30.09,South,176,0.0,1.0,65,0.00,,,0.00,meteohub,2013-08-09 12:42:00,
2013-08-09 05:47:00,49.3,37.9,30.09,SSE,149,0.0,1.0,65,0.00,,,0.00,meteohub,2013-08-09 12:47:00,
2013-08-09 05:52:00,48.9,38.1,30.09,SSW,196,0.0,1.0,66,0.00,,,0.00,meteohub,2013-08-09 12:52:00,
2013-08-09 05:57:00,48.7,37.9,30.09,SE,132,0.0,1.0,66,0.00,,,0.00,meteohub,2013-08-09 12:57:00,
2013-08-09 06:02:00,48.6,38.1,30.09,SSE,148,0.0,1.0,67,0.00,,,0.00,meteohub,2013-08-09 13:02:00,
2013-08-09 06:07:00,48.4,37.9,30.09,South,190,0.0,1.0,67,0.00,,,0.00,meteohub,2013-08-09 13:07:00,
2013-08-09 06:12:00,48.4,37.9,30.09,South,175,0.0,1.0,67,0.00,,,0.00,meteohub,2013-08-09 13:12:00,
2013-08-09 06:17:00,48.0,37.6,30.09,South,175,0.0,0.0,67,0.00,,,0.00,meteohub,2013-08-09 13:17:00,
2013-08-09 06:22:00,48.0,37.9,30.09,SSE,163,0.0,0.0,68,0.00,,,0.00,meteohub,2013-08-09 13:22:00,
2013-08-09 06:27:00,47.8,37.8,30.09,SSE,162,0.0,0.0,68,0.00,,,0.00,meteohub,2013-08-09 13:27:00,
2013-08-09 06:32:00,47.8,37.8,30.09,SE,144,1.0,0.0,68,0.00,,,0.00,meteohub,2013-08-09 13:32:00,
2013-08-09 06:37:00,48.0,37.9,30.10,SSW,194,0.0,2.0,68,0.00,,,0.00,meteohub,2013-08-09 13:37:00,
2013-08-09 06:42:00,48.0,37.9,30.10,South,183,0.0,2.0,68,0.00,,,0.00,meteohub,2013-08-09 13:42:00,
2013-08-09 06:47:00,48.2,38.1,30.10,SE,138,0.0,2.0,68,0.00,,,0.00,meteohub,2013-08-09 13:47:00,
2013-08-09 06:52:00,48.4,38.3,30.10,SE,139,0.0,1.0,68,0.00,,,0.00,meteohub,2013-08-09 13:52:00,
2013-08-09 06:57:00,48.4,38.3,30.10,South,180,0.0,1.0,68,0.00,,,0.00,meteohub,2013-08-09 13:57:00,
2013-08-09 07:02:00,48.6,38.5,30.10,SSE,149,0.0,1.0,68,0.00,,,0.00,meteohub,2013-08-09 14:02:00,
2013-08-09 07:07:00,48.7,38.7,30.10,SSW,196,0.0,1.0,68,0.00,,,0.00,meteohub,2013-08-09 14:07:00,
2013-08-09 07:12:00,48.9,38.8,30.10,South,170,0.0,1.0,68,0.00,,,0.00,meteohub,2013-08-09 14:12:00,
2013-08-09 07:17:00,49.3,39.2,30.10,SE,137,0.0,1.0,68,0.00,,,0.00,meteohub,2013-08-09 14:17:00,
2013-08-09 07:22:00,49.6,39.6,30.10,SSE,168,0.0,1.0,68,0.00,,,0.00,meteohub,2013-08-09 14:22:00,
2013-08-09 07:27:00,50.4,39.7,30.10,SSE,152,0.0,1.0,67,0.00,,,0.00,meteohub,2013-08-09 14:27:00,
2013-08-09 07:32:00,51.3,40.3,30.10,SSE,152,0.0,1.0,66,0.00,,,0.00,meteohub,2013-08-09 14:32:00,
2013-08-09 07:37:00,52.2,40.3,30.10,ESE,114,0.0,1.0,64,0.00,,,0.00,meteohub,2013-08-09 14:37:00,
2013-08-09 07:42:00,53.1,40.8,30.09,SSE,161,0.0,1.0,63,0.00,,,0.00,meteohub,2013-08-09 14:42:00,
2013-08-09 07:47:00,54.3,41.2,30.09,SE,133,0.0,1.0,61,0.00,,,0.00,meteohub,2013-08-09 14:47:00,
2013-08-09 07:52:00,55.9,41.9,30.09,SSE,167,0.0,1.0,59,0.00,,,0.00,meteohub,2013-08-09 14:52:00,
2013-08-09 07:57:00,57.0,41.5,30.09,SSW,210,0.0,1.0,56,0.00,,,0.00,meteohub,2013-08-09 14:57:00,
2013-08-09 08:02:00,58.5,41.4,30.09,SE,126,0.0,1.0,53,0.00,,,0.00,meteohub,2013-08-09 15:02:00,
2013-08-09 08:07:00,59.4,41.7,30.09,SE,144,0.0,3.0,52,0.00,,,0.00,meteohub,2013-08-09 15:07:00,
2013-08-09 08:12:00,60.4,43.2,30.09,SE,141,0.0,3.0,53,0.00,,,0.00,meteohub,2013-08-09 15:12:00,
2013-08-09 08:17:00,61.5,42.3,30.09,SSE,153,1.0,3.0,49,0.00,,,0.00,meteohub,2013-08-09 15:17:00,
2013-08-09 08:22:00,62.1,41.5,30.09,SSE,153,0.0,1.0,47,0.00,,,0.00,meteohub,2013-08-09 15:22:00,
2013-08-09 08:27:00,62.4,41.9,30.09,SE,134,0.0,3.0,47,0.00,,,0.00,meteohub,2013-08-09 15:27:00,
2013-08-09 08:32:00,63.0,42.4,30.09,SSW,196,0.0,3.0,47,0.00,,,0.00,meteohub,2013-08-09 15:32:00,
2013-08-09 08:37:00,63.3,41.5,30.09,South,184,0.0,3.0,45,0.00,,,0.00,meteohub,2013-08-09 15:37:00,
2013-08-09 08:42:00,62.4,43.5,30.09,NE,42,4.0,4.0,50,0.00,,,0.00,meteohub,2013-08-09 15:42:00,
2013-08-09 08:47:00,60.8,42.6,30.09,NE,39,4.0,4.0,51,0.00,,,0.00,meteohub,2013-08-09 15:47:00,
2013-08-09 08:52:00,60.1,43.0,30.09,NNE,29,3.0,5.0,53,0.00,,,0.00,meteohub,2013-08-09 15:52:00,
2013-08-09 08:57:00,59.7,43.0,30.09,NE,39,3.0,5.0,54,0.00,,,0.00,meteohub,2013-08-09 15:57:00,
2013-08-09 09:02:00,59.4,43.7,30.09,NE,35,4.0,5.0,56,0.00,,,0.00,meteohub,2013-08-09 16:02:00,
2013-08-09 09:07:00,59.4,43.2,30.09,NNE,32,4.0,6.0,55,0.00,,,0.00,meteohub,2013-08-09 16:07:00,
2013-08-09 09:12:00,59.4,43.2,30.09,NNE,32,3.0,6.0,55,0.00,,,0.00,meteohub,2013-08-09 16:12:00,
2013-08-09 09:17:00,59.7,43.5,30.09,NE,40,2.0,6.0,55,0.00,,,0.00,meteohub,2013-08-09 16:17:00,
2013-08-09 09:22:00,59.9,40.6,30.09,NNW,333,1.0,5.0,49,0.00,,,0.00,meteohub,2013-08-09 16:22:00,
2013-08-09 09:27:00,60.3,41.5,30.08,NNW,342,2.0,4.0,50,0.00,,,0.00,meteohub,2013-08-09 16:27:00,
2013-08-09 09:32:00,60.4,39.6,30.08,NNE,28,0.0,4.0,46,0.00,,,0.00,meteohub,2013-08-09 16:32:00,
2013-08-09 09:37:00,60.6,41.9,30.08,NNW,333,3.0,4.0,50,0.00,,,0.00,meteohub,2013-08-09 16:37:00,
2013-08-09 09:42:00,60.4,40.6,30.08,NNE,19,4.0,4.0,48,0.00,,,0.00,meteohub,2013-08-09 16:42:00,
2013-08-09 09:47:00,60.4,42.8,30.08,NNW,340,4.0,4.0,52,0.00,,,0.00,meteohub,2013-08-09 16:47:00,
2013-08-09 09:52:00,60.4,43.2,30.08,NNE,12,2.0,4.0,53,0.00,,,0.00,meteohub,2013-08-09 16:52:00,
2013-08-09 09:57:00,60.4,43.2,30.08,NNW,337,3.0,5.0,53,0.00,,,0.00,meteohub,2013-08-09 16:57:00,
2013-08-09 10:02:00,60.4,45.1,30.08,NNW,331,3.0,6.0,57,0.00,,,0.00,meteohub,2013-08-09 17:02:00,
2013-08-09 10:07:00,60.4,44.2,30.08,NNE,30,4.0,6.0,55,0.00,,,0.00,meteohub,2013-08-09 17:07:00,
2013-08-09 10:12:00,60.4,44.2,30.08,NNW,347,4.0,6.0,55,0.00,,,0.00,meteohub,2013-08-09 17:12:00,
2013-08-09 10:17:00,60.4,45.1,30.08,NNW,331,3.0,5.0,57,0.00,,,0.00,meteohub,2013-08-09 17:17:00,
2013-08-09 10:22:00,60.6,46.2,30.08,NNW,327,5.0,6.0,59,0.00,,,0.00,meteohub,2013-08-09 17:22:00,
2013-08-09 10:27:00,60.8,46.8,30.08,NW,319,5.0,6.0,60,0.00,,,0.00,meteohub,2013-08-09 17:27:00,
2013-08-09 10:32:00,60.6,45.7,30.08,NNW,340,4.0,7.0,58,0.00,,,0.00,meteohub,2013-08-09 17:32:00,
2013-08-09 10:37:00,60.6,47.5,30.08,NNW,337,6.0,7.0,62,0.00,,,0.00,meteohub,2013-08-09 17:37:00,
2013-08-09 10:42:00,60.6,47.5,30.08,NNW,330,4.0,8.0,62,0.00,,,0.00,meteohub,2013-08-09 17:42:00,
2013-08-09 10:47:00,60.6,47.1,30.09,NNW,330,5.0,8.0,61,0.00,,,0.00,meteohub,2013-08-09 17:47:00,
2013-08-09 10:52:00,60.4,47.3,30.08,NNW,346,5.0,8.0,62,0.00,,,0.00,meteohub,2013-08-09 17:52:00,
2013-08-09 10:57:00,60.6,48.7,30.08,NNW,333,6.0,7.0,65,0.00,,,0.00,meteohub,2013-08-09 17:57:00,
2013-08-09 11:02:00,60.6,48.7,30.08,NW,324,9.0,9.0,65,0.00,,,0.00,meteohub,2013-08-09 18:02:00,
2013-08-09 11:07:00,60.6,48.4,30.08,NNW,340,9.0,9.0,64,0.00,,,0.00,meteohub,2013-08-09 18:07:00,
2013-08-09 11:12:00,60.6,48.4,30.08,NNW,327,8.0,10.0,64,0.00,,,0.00,meteohub,2013-08-09 18:12:00,
2013-08-09 11:17:00,60.6,47.5,30.08,NW,319,9.0,10.0,62,0.00,,,0.00,meteohub,2013-08-09 18:17:00,
2013-08-09 11:22:00,61.0,48.7,30.08,NW,310,8.0,11.0,64,0.00,,,0.00,meteohub,2013-08-09 18:22:00,
2013-08-09 11:27:00,61.0,48.7,30.08,NW,319,8.0,11.0,64,0.00,,,0.00,meteohub,2013-08-09 18:27:00,
2013-08-09 11:32:00,61.0,48.4,30.08,NW,326,7.0,10.0,63,0.00,,,0.00,meteohub,2013-08-09 18:32:00,
2013-08-09 11:38:00,61.2,47.1,30.08,NNW,333,7.0,10.0,60,0.00,,,0.00,meteohub,2013-08-09 18:38:00,
2013-08-09 11:43:00,61.3,46.9,30.08,NW,323,5.0,10.0,59,0.00,,,0.00,meteohub,2013-08-09 18:43:00,
2013-08-09 11:48:00,61.5,48.0,30.08,NNW,339,8.0,10.0,61,0.00,,,0.00,meteohub,2013-08-09 18:48:00,
2013-08-09 11:53:00,61.7,45.0,30.08,NNW,331,6.0,9.0,54,0.00,,,0.00,meteohub,2013-08-09 18:53:00,
2013-08-09 11:58:00,61.9,46.0,30.08,NNW,337,8.0,9.0,56,0.00,,,0.00,meteohub,2013-08-09 18:58:00,
2013-08-09 12:03:00,62.1,46.6,30.08,NW,326,7.0,9.0,57,0.00,,,0.00,meteohub,2013-08-09 19:03:00,
2013-08-09 12:08:00,62.2,45.0,30.08,NNW,332,6.0,8.0,53,0.00,,,0.00,meteohub,2013-08-09 19:08:00,
2013-08-09 12:13:00,62.4,46.6,30.08,NW,326,6.0,8.0,56,0.00,,,0.00,meteohub,2013-08-09 19:13:00,
2013-08-09 12:18:00,62.6,46.8,30.08,NNW,340,5.0,8.0,56,0.00,,,0.00,meteohub,2013-08-09 19:18:00,
2013-08-09 12:23:00,62.8,44.4,30.08,NNE,28,10.0,10.0,51,0.00,,,0.00,meteohub,2013-08-09 19:23:00,
2013-08-09 12:28:00,63.0,48.9,30.08,NNE,16,12.0,12.0,60,0.00,,,0.00,meteohub,2013-08-09 19:28:00,
2013-08-09 12:33:00,62.8,48.7,30.07,NNE,30,12.0,13.0,60,0.00,,,0.00,meteohub,2013-08-09 19:33:00,
2013-08-09 12:38:00,63.1,36.5,30.07,NNE,28,11.0,14.0,37,0.00,,,0.00,meteohub,2013-08-09 19:38:00,
2013-08-09 12:43:00,63.1,46.2,30.08,NNW,338,11.0,17.0,54,0.00,,,0.00,meteohub,2013-08-09 19:43:00,
2013-08-09 12:48:00,63.1,44.8,30.08,NNW,336,8.0,17.0,51,0.00,,,0.00,meteohub,2013-08-09 19:48:00,
2013-08-09 12:53:00,63.7,46.2,30.07,NE,36,10.0,17.0,53,0.00,,,0.00,meteohub,2013-08-09 19:53:00,
2013-08-09 12:58:00,63.7,44.8,30.07,NNE,20,11.0,13.0,50,0.00,,,0.00,meteohub,2013-08-09 19:58:00,
2013-08-09 13:04:00,63.7,48.2,30.07,NNW,347,12.0,12.0,57,0.00,,,0.00,meteohub,2013-08-09 20:04:00,
2013-08-09 13:09:00,63.7,44.2,30.07,NNW,336,11.0,13.0,49,0.00,,,0.00,meteohub,2013-08-09 20:09:00,
2013-08-09 13:14:00,64.0,44.4,30.08,NNE,24,10.0,13.0,49,0.00,,,0.00,meteohub,2013-08-09 20:14:00,
2013-08-09 13:19:00,64.0,42.8,30.08,NNE,28,10.0,15.0,46,0.00,,,0.00,meteohub,2013-08-09 20:19:00,
2013-08-09 13:24:00,63.9,44.2,30.08,NNE,32,10.0,15.0,49,0.00,,,0.00,meteohub,2013-08-09 20:24:00,
2013-08-09 13:29:00,64.0,42.8,30.08,North,355,12.0,14.0,46,0.00,,,0.00,meteohub,2013-08-09 20:29:00,
2013-08-09 13:34:00,64.0,42.3,30.08,North,0,10.0,14.0,45,0.00,,,0.00,meteohub,2013-08-09 20:34:00,
2013-08-09 13:39:00,64.6,44.4,30.08,NNW,346,15.0,15.0,48,0.00,,,0.00,meteohub,2013-08-09 20:39:00,
2013-08-09 13:44:00,64.4,45.9,30.08,NNW,337,14.0,14.0,51,0.00,,,0.00,meteohub,2013-08-09 20:44:00,
2013-08-09 13:49:00,64.2,44.1,30.08,NNW,344,11.0,16.0,48,0.00,,,0.00,meteohub,2013-08-09 20:49:00,
2013-08-09 13:51:00,64.2,43.0,30.08,NNW,335,13.0,16.0,46,0.00,,,0.00,meteohub,2013-08-09 20:51:00,
2013-08-09 13:56:00,64.6,42.8,30.08,NNE,17,11.0,16.0,45,0.00,,,0.00,meteohub,2013-08-09 20:56:00,
2013-08-09 14:01:00,64.8,44.1,30.08,NNW,333,13.0,15.0,47,0.00,,,0.00,meteohub,2013-08-09 21:01:00,
2013-08-09 14:06:00,64.8,46.2,30.08,NNW,339,5.0,16.0,51,0.00,,,0.00,meteohub,2013-08-09 21:06:00,
2013-08-09 14:11:00,65.1,36.1,30.07,NW,322,4.0,16.0,34,0.00,,,0.00,meteohub,2013-08-09 21:11:00,
2013-08-09 14:16:00,65.3,44.1,30.07,NE,40,11.0,16.0,46,0.00,,,0.00,meteohub,2013-08-09 21:16:00,
2013-08-09 14:21:00,65.7,43.2,30.07,ENE,57,1.0,18.0,44,0.00,,,0.00,meteohub,2013-08-09 21:21:00,
2013-08-09 14:27:00,65.8,42.1,30.07,NNW,331,13.0,18.0,42,0.00,,,0.00,meteohub,2013-08-09 21:27:00,
2013-08-09 14:32:00,65.8,43.3,30.07,NNW,338,6.0,18.0,44,0.00,,,0.00,meteohub,2013-08-09 21:32:00,
2013-08-09 14:37:00,66.0,40.3,30.07,NW,304,7.0,15.0,39,0.00,,,0.00,meteohub,2013-08-09 21:37:00,
2013-08-09 14:42:00,67.5,37.4,30.07,SW,218,1.0,16.0,33,0.00,,,0.00,meteohub,2013-08-09 21:42:00,
2013-08-09 14:47:00,69.6,35.1,30.06,WSW,254,0.0,16.0,28,0.00,,,0.00,meteohub,2013-08-09 21:47:00,
2013-08-09 14:52:00,71.4,37.6,30.06,WNW,302,0.0,16.0,29,0.00,,,0.00,meteohub,2013-08-09 21:52:00,
2013-08-09 14:57:00,72.3,33.4,30.07,SW,234,3.0,9.0,24,0.00,,,0.00,meteohub,2013-08-09 21:57:00,
2013-08-09 15:02:00,73.0,36.1,30.06,NNE,12,1.0,6.0,26,0.00,,,0.00,meteohub,2013-08-09 22:02:00,
2013-08-09 15:07:00,72.5,33.6,30.06,ESE,122,3.0,6.0,24,0.00,,,0.00,meteohub,2013-08-09 22:07:00,
2013-08-09 15:12:00,72.9,36.0,30.06,NNW,344,0.0,6.0,26,0.00,,,0.00,meteohub,2013-08-09 22:12:00,
2013-08-09 15:17:00,73.4,37.4,30.06,East,96,2.0,7.0,27,0.00,,,0.00,meteohub,2013-08-09 22:17:00,
2013-08-09 15:22:00,73.6,37.6,30.06,WNW,283,0.0,8.0,27,0.00,,,0.00,meteohub,2013-08-09 22:22:00,
2013-08-09 15:27:00,73.2,36.3,30.06,NW,317,5.0,8.0,26,0.00,,,0.00,meteohub,2013-08-09 22:27:00,
2013-08-09 15:32:00,73.6,35.6,30.06,ESE,119,1.0,8.0,25,0.00,,,0.00,meteohub,2013-08-09 22:32:00,
2013-08-09 15:37:00,73.2,35.2,30.06,SE,139,2.0,5.0,25,0.00,,,0.00,meteohub,2013-08-09 22:37:00,
2013-08-09 15:42:00,73.9,36.0,30.06,WSW,242,4.0,7.0,25,0.00,,,0.00,meteohub,2013-08-09 22:42:00,
2013-08-09 15:47:00,73.9,37.8,30.06,NNE,32,2.0,7.0,27,0.00,,,0.00,meteohub,2013-08-09 22:47:00,
2013-08-09 15:52:00,73.8,39.6,30.06,SSW,210,2.0,4.0,29,0.00,,,0.00,meteohub,2013-08-09 22:52:00,
2013-08-09 15:57:00,73.6,40.3,30.06,South,190,0.0,5.0,30,0.00,,,0.00,meteohub,2013-08-09 22:57:00,
2013-08-09 16:02:00,73.2,39.0,30.06,NE,36,3.0,5.0,29,0.00,,,0.00,meteohub,2013-08-09 23:02:00,
2013-08-09 16:07:00,73.0,36.1,30.06,WSW,242,3.0,7.0,26,0.00,,,0.00,meteohub,2013-08-09 23:07:00,
2013-08-09 16:12:00,73.0,39.7,30.06,NNE,22,0.0,7.0,30,0.00,,,0.00,meteohub,2013-08-09 23:12:00,
2013-08-09 16:17:00,73.0,38.8,30.06,SW,221,0.0,7.0,29,0.00,,,0.00,meteohub,2013-08-09 23:17:00,
2013-08-09 16:22:00,73.0,39.7,30.06,SW,233,2.0,7.0,30,0.00,,,0.00,meteohub,2013-08-09 23:22:00,
2013-08-09 16:27:00,72.7,41.2,30.06,NE,44,3.0,6.0,32,0.00,,,0.00,meteohub,2013-08-09 23:27:00,
2013-08-09 16:32:00,72.3,39.2,30.06,NE,51,4.0,5.0,30,0.00,,,0.00,meteohub,2013-08-09 23:32:00,
2013-08-09 16:37:00,72.3,42.4,30.06,SSW,210,1.0,6.0,34,0.00,,,0.00,meteohub,2013-08-09 23:37:00,
2013-08-09 16:42:00,72.1,39.0,30.06,ESE,109,1.0,6.0,30,0.00,,,0.00,meteohub,2013-08-09 23:42:00,
2013-08-09 16:47:00,72.3,41.5,30.06,WSW,256,0.0,6.0,33,0.00,,,0.00,meteohub,2013-08-09 23:47:00,
2013-08-09 16:52:00,72.7,41.2,30.06,East,86,3.0,6.0,32,0.00,,,0.00,meteohub,2013-08-09 23:52:00,
2013-08-09 16:57:00,72.3,42.4,30.06,South,179,1.0,5.0,34,0.00,,,0.00,meteohub,2013-08-09 23:57:00,
2013-08-09 17:02:00,72.1,40.6,30.06,SW,236,0.0,8.0,32,0.00,,,0.00,meteohub,2013-08-10 00:02:00,
2013-08-09 17:07:00,72.0,42.1,30.06,South,185,2.0,8.0,34,0.00,,,0.00,meteohub,2013-08-10 00:07:00,
2013-08-09 17:12:00,71.8,43.3,30.06,NW,307,4.0,8.0,36,0.00,,,0.00,meteohub,2013-08-10 00:12:00,
2013-08-09 17:17:00,71.6,42.4,30.06,SSE,165,2.0,6.0,35,0.00,,,0.00,meteohub,2013-08-10 00:17:00,
2013-08-09 17:22:00,71.4,43.2,30.06,SSE,161,0.0,8.0,36,0.00,,,0.00,meteohub,2013-08-10 00:22:00,
2013-08-09 17:27:00,71.4,43.7,30.06,East,94,1.0,8.0,37,0.00,,,0.00,meteohub,2013-08-10 00:27:00,
2013-08-09 17:32:00,70.9,41.9,30.07,ESE,106,0.0,8.0,35,0.00,,,0.00,meteohub,2013-08-10 00:32:00,
2013-08-09 17:37:00,70.5,42.3,30.07,SW,219,2.0,7.0,36,0.00,,,0.00,meteohub,2013-08-10 00:37:00,
2013-08-09 17:42:00,70.0,42.4,30.07,South,183,0.0,7.0,37,0.00,,,0.00,meteohub,2013-08-10 00:42:00,
2013-08-09 17:47:00,70.2,41.9,30.07,NE,51,2.0,7.0,36,0.00,,,0.00,meteohub,2013-08-10 00:47:00,
2013-08-09 17:52:00,69.6,42.3,30.07,ESE,118,2.0,7.0,37,0.00,,,0.00,meteohub,2013-08-10 00:52:00,
2013-08-09 17:57:00,69.3,43.2,30.07,South,182,0.0,7.0,39,0.00,,,0.00,meteohub,2013-08-10 00:57:00,
2013-08-09 18:02:00,69.1,41.7,30.07,West,279,2.0,7.0,37,0.00,,,0.00,meteohub,2013-08-10 01:02:00,
2013-08-09 18:07:00,68.4,42.4,30.07,South,182,0.0,5.0,39,0.00,,,0.00,meteohub,2013-08-10 01:07:00,
2013-08-09 18:12:00,67.8,41.9,30.07,East,95,2.0,5.0,39,0.00,,,0.00,meteohub,2013-08-10 01:12:00,
2013-08-09 18:17:00,67.3,42.1,30.08,ESE,122,1.0,5.0,40,0.00,,,0.00,meteohub,2013-08-10 01:17:00,
2013-08-09 18:22:00,66.7,43.0,30.08,South,182,0.0,5.0,42,0.00,,,0.00,meteohub,2013-08-10 01:22:00,
2013-08-09 18:27:00,66.4,41.9,30.08,SE,133,1.0,5.0,41,0.00,,,0.00,meteohub,2013-08-10 01:27:00,
2013-08-09 18:32:00,66.2,41.2,30.08,SSE,148,1.0,8.0,40,0.00,,,0.00,meteohub,2013-08-10 01:32:00,
2013-08-09 18:37:00,66.4,41.4,30.08,SW,214,1.0,8.0,40,0.00,,,0.00,meteohub,2013-08-10 01:37:00,
2013-08-09 18:42:00,66.4,41.4,30.08,SE,140,1.0,7.0,40,0.00,,,0.00,meteohub,2013-08-10 01:42:00,
2013-08-09 18:47:00,66.4,42.6,30.09,WSW,253,4.0,5.0,42,0.00,,,0.00,meteohub,2013-08-10 01:47:00,
2013-08-09 18:52:00,66.4,40.6,30.09,SSE,148,1.0,7.0,39,0.00,,,0.00,meteohub,2013-08-10 01:52:00,
2013-08-09 18:57:00,66.2,41.2,30.09,NNE,17,0.0,7.0,40,0.00,,,0.00,meteohub,2013-08-10 01:57:00,
2013-08-09 19:02:00,66.0,40.3,30.09,SE,132,1.0,7.0,39,0.00,,,0.00,meteohub,2013-08-10 02:02:00,
2013-08-09 19:07:00,65.5,40.5,30.09,East,97,0.0,5.0,40,0.00,,,0.00,meteohub,2013-08-10 02:07:00,
2013-08-09 19:12:00,64.6,40.3,30.09,SE,128,2.0,5.0,41,0.00,,,0.00,meteohub,2013-08-10 02:12:00,
2013-08-09 19:17:00,63.7,39.6,30.10,SSE,153,0.0,6.0,41,0.00,,,0.00,meteohub,2013-08-10 02:17:00,
2013-08-09 19:22:00,63.1,40.3,30.10,SW,236,0.0,6.0,43,0.00,,,0.00,meteohub,2013-08-10 02:22:00,
2013-08-09 19:27:00,62.8,39.4,30.10,SW,222,1.0,6.0,42,0.00,,,0.00,meteohub,2013-08-10 02:27:00,
2013-08-09 19:32:00,62.4,40.3,30.11,ENE,65,0.0,6.0,44,0.00,,,0.00,meteohub,2013-08-10 02:32:00,
2013-08-09 19:37:00,62.1,38.7,30.11,SSE,161,1.0,6.0,42,0.00,,,0.00,meteohub,2013-08-10 02:37:00,
2013-08-09 19:42:00,61.5,38.8,30.11,SSE,153,0.0,7.0,43,0.00,,,0.00,meteohub,2013-08-10 02:42:00,
2013-08-09 19:47:00,61.2,38.5,30.11,WSW,237,2.0,7.0,43,0.00,,,0.00,meteohub,2013-08-10 02:47:00,
2013-08-09 19:52:00,61.0,38.3,30.11,ESE,119,0.0,7.0,43,0.00,,,0.00,meteohub,2013-08-10 02:52:00,
2013-08-09 19:57:00,60.6,39.7,30.12,WNW,283,0.0,5.0,46,0.00,,,0.00,meteohub,2013-08-10 02:57:00,
2013-08-09 20:02:00,60.3,38.3,30.12,SSE,163,0.0,5.0,44,0.00,,,0.00,meteohub,2013-08-10 03:02:00,
2013-08-09 20:07:00,59.9,37.9,30.12,SSW,206,0.0,3.0,44,0.00,,,0.00,meteohub,2013-08-10 03:07:00,
2013-08-09 20:12:00,59.5,38.1,30.12,ESE,102,0.0,2.0,45,0.00,,,0.00,meteohub,2013-08-10 03:12:00,
2013-08-09 20:17:00,59.4,37.9,30.12,East,101,0.0,2.0,45,0.00,,,0.00,meteohub,2013-08-10 03:17:00,
2013-08-09 20:22:00,59.0,37.8,30.12,SSW,195,3.0,3.0,45,0.00,,,0.00,meteohub,2013-08-10 03:22:00,
2013-08-09 20:27:00,58.6,37.4,30.12,SE,128,0.0,3.0,45,0.00,,,0.00,meteohub,2013-08-10 03:27:00,
2013-08-09 20:32:00,58.5,37.2,30.12,ESE,120,1.0,3.0,45,0.00,,,0.00,meteohub,2013-08-10 03:32:00,
2013-08-09 20:37:00,58.3,37.6,30.12,SE,126,0.0,3.0,46,0.00,,,0.00,meteohub,2013-08-10 03:37:00,
2013-08-09 20:42:00,57.9,37.2,30.12,SSE,166,0.0,4.0,46,0.00,,,0.00,meteohub,2013-08-10 03:42:00,
2013-08-09 20:47:00,57.7,37.0,30.12,SSW,201,1.0,4.0,46,0.00,,,0.00,meteohub,2013-08-10 03:47:00,
2013-08-09 20:52:00,57.6,36.9,30.12,SSE,150,0.0,6.0,46,0.00,,,0.00,meteohub,2013-08-10 03:52:00,
2013-08-09 20:57:00,57.6,36.9,30.12,SSE,167,2.0,6.0,46,0.00,,,0.00,meteohub,2013-08-10 03:57:00,
2013-08-09 21:01:00,57.4,36.7,30.13,South,175,0.0,5.0,46,0.00,,,0.00,meteohub,2013-08-10 04:01:00,
2013-08-09 21:02:00,57.4,36.7,30.13,ESE,108,3.0,5.0,46,0.00,,,0.00,meteohub,2013-08-10 04:02:00,
2013-08-09 21:07:00,57.2,36.7,30.13,WNW,292,3.0,3.0,46,0.00,,,0.00,meteohub,2013-08-10 04:07:00,
2013-08-09 21:12:00,57.0,36.5,30.13,South,190,0.0,8.0,46,0.00,,,0.00,meteohub,2013-08-10 04:12:00,
2013-08-09 21:17:00,57.0,36.5,30.13,South,191,2.0,8.0,46,0.00,,,0.00,meteohub,2013-08-10 04:17:00,
2013-08-09 21:22:00,57.0,36.5,30.13,SE,135,1.0,8.0,46,0.00,,,0.00,meteohub,2013-08-10 04:22:00,
2013-08-09 21:27:00,56.8,36.3,30.13,SSW,199,0.0,7.0,46,0.00,,,0.00,meteohub,2013-08-10 04:27:00,
2013-08-09 21:32:00,56.8,36.3,30.13,SE,141,0.0,9.0,46,0.00,,,0.00,meteohub,2013-08-10 04:32:00,
2013-08-09 21:37:00,56.8,36.3,30.13,East,96,0.0,9.0,46,0.00,,,0.00,meteohub,2013-08-10 04:37:00,
2013-08-09 21:42:00,56.8,36.3,30.13,WSW,252,0.0,7.0,46,0.00,,,0.00,meteohub,2013-08-10 04:42:00,
2013-08-09 21:47:00,56.8,35.8,30.13,ESE,102,2.0,4.0,45,0.00,,,0.00,meteohub,2013-08-10 04:47:00,
2013-08-09 21:52:00,56.7,36.1,30.13,South,183,0.0,4.0,46,0.00,,,0.00,meteohub,2013-08-10 04:52:00,
2013-08-09 21:57:00,56.7,36.1,30.14,WSW,240,1.0,3.0,46,0.00,,,0.00,meteohub,2013-08-10 04:57:00,
2013-08-09 22:02:00,56.5,35.4,30.13,SE,144,0.0,3.0,45,0.00,,,0.00,meteohub,2013-08-10 05:02:00,
2013-08-09 22:07:00,56.5,35.4,30.14,NE,44,0.0,3.0,45,0.00,,,0.00,meteohub,2013-08-10 05:07:00,
2013-08-09 22:12:00,56.3,35.2,30.13,ESE,107,1.0,3.0,45,0.00,,,0.00,meteohub,2013-08-10 05:12:00,
2013-08-09 22:17:00,56.1,35.1,30.14,East,100,1.0,3.0,45,0.00,,,0.00,meteohub,2013-08-10 05:17:00,
2013-08-09 22:22:00,56.1,34.5,30.14,ESE,120,0.0,4.0,44,0.00,,,0.00,meteohub,2013-08-10 05:22:00,
2013-08-09 22:27:00,56.1,34.5,30.14,ESE,117,0.0,4.0,44,0.00,,,0.00,meteohub,2013-08-10 05:27:00,
2013-08-09 22:32:00,55.9,34.3,30.14,SSE,161,0.0,4.0,44,0.00,,,0.00,meteohub,2013-08-10 05:32:00,
2013-08-09 22:37:00,55.9,34.3,30.14,SW,217,1.0,2.0,44,0.00,,,0.00,meteohub,2013-08-10 05:37:00,
2013-08-09 22:42:00,55.8,34.2,30.14,South,187,0.0,2.0,44,0.00,,,0.00,meteohub,2013-08-10 05:42:00,
2013-08-09 22:47:00,55.6,34.0,30.14,SE,132,0.0,2.0,44,0.00,,,0.00,meteohub,2013-08-10 05:47:00,
2013-08-09 22:52:00,55.4,33.8,30.14,SW,218,0.0,2.0,44,0.00,,,0.00,meteohub,2013-08-10 05:52:00,
2013-08-09 22:57:00,55.2,34.2,30.14,WSW,245,0.0,1.0,45,0.00,,,0.00,meteohub,2013-08-10 05:57:00,
2013-08-09 23:02:00,55.0,32.9,30.14,SE,125,0.0,1.0,43,0.00,,,0.00,meteohub,2013-08-10 06:02:00,
2013-08-09 23:07:00,55.0,32.9,30.14,SW,229,0.0,2.0,43,0.00,,,0.00,meteohub,2013-08-10 06:07:00,
2013-08-09 23:12:00,55.0,32.9,30.15,East,98,0.0,2.0,43,0.00,,,0.00,meteohub,2013-08-10 06:12:00,
2013-08-09 23:17:00,54.9,32.7,30.15,East,98,0.0,2.0,43,0.00,,,0.00,meteohub,2013-08-10 06:17:00,
2013-08-09 23:22:00,54.9,33.4,30.15,ENE,67,0.0,1.0,44,0.00,,,0.00,meteohub,2013-08-10 06:22:00,
2013-08-09 23:27:00,54.9,32.7,30.15,ESE,102,0.0,1.0,43,0.00,,,0.00,meteohub,2013-08-10 06:27:00,
2013-08-09 23:33:00,54.7,33.3,30.15,ESE,102,1.0,1.0,44,0.00,,,0.00,meteohub,2013-08-10 06:33:00,
2013-08-09 23:38:00,54.1,33.3,30.15,ESE,105,0.0,2.0,45,0.00,,,0.00,meteohub,2013-08-10 06:38:00,
2013-08-09 23:43:00,54.0,33.6,30.16,East,90,0.0,2.0,46,0.00,,,0.00,meteohub,2013-08-10 06:43:00,
2013-08-09 23:48:00,53.4,32.5,30.16,East,93,0.0,2.0,45,0.00,,,0.00,meteohub,2013-08-10 06:48:00,
2013-08-09 23:53:00,53.2,33.1,30.16,ESE,109,1.0,1.0,46,0.00,,,0.00,meteohub,2013-08-10 06:53:00,
2013-08-09 23:58:00,52.9,32.7,30.15,ESE,103,0.0,1.0,46,0.00,,,0.00,meteohub,2013-08-10 06:58:00,